Rolla, MO

8:25 PM CDT on April 24, 2018 (GMT -0500)
Rolla National

Weather History for KVIH - September, 2013

Change the Weather History Date:

Monday, September 2, 2013

  Actual Average Record
Temperature  
Mean Temperature 71 °F 73 °F  
Max Temperature 85 °F 84 °F 99 °F (1954)
Min Temperature 56 °F 62 °F 48 °F (2017)
Degree Days  
Heating Degree Days 0 0  
Month to date heating degree days 0 0  
Since 1 July heating degree days 4 3  
Cooling Degree Days 6 8  
Month to date cooling degree days 19 16  
Year to date cooling degree days 918 1093  
Growing Degree Days 23 (Base 50)    
Moisture  
Dew Point 60 °F    
Average Humidity 67    
Maximum Humidity 93    
Minimum Humidity 40    
Precipitation  
Precipitation 0.00 in 0.14 in 1.35 in (1958)
Month to date precipitation 0.05 0.28  
Year to date precipitation 33.03 29.83  
Sea Level Pressure  
Sea Level Pressure 29.93 in    
Wind  
Wind Speed 5 mph (NNW)    
Max Wind Speed 12 mph    
Max Gust Speed 15 mph    
Visibility 10 miles    
Events      
T = Trace of Precipitation, MM = Missing Value Source: NWS Daily Summary

Daily Weather History Graph

Daily Weather History Graph

Search for Another Location

Airport or City:

Astronomy

Sep. 02, 2013 Rise Set
Actual Time 6:37 AM CDT 7:34 PM CDT
Civil Twilight 6:10 AM CDT 8:01 PM CDT
Nautical Twilight 5:38 AM CDT 8:33 PM CDT
Astronomical Twilight 5:05 AM CDT 9:06 PM CDT
Moon 3:56 AM CDT (9/2) 5:47 PM CDT (9/2)
Length of Visible Light 13h 50m
Length of Day
12h 56m
Waning Crescent, 8% of the Moon is Illuminated
Sep 2
Waning Crescent
Sep 5
New
Sep 12
First Quarter
Sep 19
Full
Sep 26
Last Quarter

Hourly Weather History & Observations

Time (CDT) Temp. Heat Index Dew Point Humidity Pressure Visibility Wind Dir Wind Speed Gust Speed Precip Events Conditions
12:53 AM 72.0 °F - 69.1 °F 91% 29.86 in 10.0 mi WNW 6.9 mph - N/A   Clear
1:53 AM 71.1 °F - 68.0 °F 90% 29.87 in 10.0 mi NNW 6.9 mph - N/A   Clear
2:53 AM 69.1 °F - 63.0 °F 81% 29.87 in 10.0 mi North 6.9 mph - N/A   Clear
3:53 AM 68.0 °F - 61.0 °F 78% 29.88 in 10.0 mi North 4.6 mph - N/A   Mostly Cloudy
4:53 AM 66.9 °F - 61.0 °F 81% 29.88 in 10.0 mi North 3.5 mph - N/A   Scattered Clouds
5:53 AM 66.0 °F - 61.0 °F 84% 29.91 in 10.0 mi NNW 3.5 mph - N/A   Mostly Cloudy
6:53 AM 64.0 °F - 60.1 °F 87% 29.93 in 10.0 mi NNW 3.5 mph - N/A   Clear
7:53 AM 68.0 °F - 61.0 °F 78% 29.95 in 10.0 mi NNW 5.8 mph - N/A   Clear
8:53 AM 71.1 °F - 62.1 °F 73% 29.95 in 10.0 mi Variable 3.5 mph - N/A   Clear
9:53 AM 75.0 °F - 63.0 °F 66% 29.97 in 10.0 mi North 3.5 mph - N/A   Clear
10:53 AM 77.0 °F - 61.0 °F 58% 29.97 in 10.0 mi NNW 9.2 mph - N/A   Clear
11:53 AM 80.1 °F 81.1 °F 61.0 °F 52% 29.97 in 10.0 mi NNW 9.2 mph - N/A   Clear
12:53 PM 79.0 °F - 61.0 °F 54% 29.96 in 10.0 mi WNW 3.5 mph - N/A   Partly Cloudy
1:53 PM 82.9 °F 83.7 °F 62.1 °F 49% 29.95 in 10.0 mi Variable 4.6 mph - N/A   Clear
2:53 PM 82.9 °F 83.3 °F 61.0 °F 47% 29.94 in 10.0 mi WNW 9.2 mph - N/A   Clear
3:53 PM 84.0 °F 84.0 °F 60.1 °F 44% 29.92 in 10.0 mi WNW 9.2 mph - N/A   Clear
4:53 PM 84.9 °F 84.2 °F 57.9 °F 40% 29.91 in 10.0 mi NW 3.5 mph - N/A   Clear
5:53 PM 82.9 °F 82.4 °F 57.0 °F 41% 29.91 in 10.0 mi NNW 6.9 mph - N/A   Clear
6:53 PM 79.0 °F - 57.9 °F 48% 29.91 in 10.0 mi NNW 5.8 mph - N/A   Clear
7:53 PM 72.0 °F - 57.0 °F 59% 29.93 in 10.0 mi NNW 3.5 mph - N/A   Clear
8:53 PM 68.0 °F - 57.0 °F 68% 29.94 in 10.0 mi North 3.5 mph - N/A   Clear
9:53 PM 63.0 °F - 55.9 °F 78% 29.96 in 10.0 mi Calm Calm - N/A   Clear
10:53 PM 62.1 °F - 55.0 °F 78% 29.96 in 10.0 mi Calm Calm - N/A   Clear
11:53 PM 59.0 °F - 54.0 °F 83% 29.96 in 10.0 mi Calm Calm - N/A   Clear